Regional Weather Roundup
Issued by NWS Newport/Morehead, NC

Current Version | Previous Version | Graphics & Text | Print | Product List | Glossary On
Versions: 1 2 3 4 5 6 7 8 9 10 11 12 13 14 15 16 17 18 19 20 21 22 23 24 25 26 27 28 29 30 31 32 33 34 35 36 37 38 39 40 41 42 43 44 45 46 47 48 49 50
000 ASUS42 KMHX 242225 RWRMHX WEATHER ROUNDUP FOR EASTERN NORTH CAROLINA NATIONAL WEATHER SERVICE NEWPORT/MOREHEAD CITY NC 500 PM EST FRI FEB 24 2017 NOTE: "FAIR" INDICATES FEW OR NO CLOUDS BELOW 12,000 FEET WITH NO SIGNIFICANT WEATHER AND/OR OBSTRUCTIONS TO VISIBILITY NCZ015>017-031-032-045>047-102-103-242300- NORTH COAST CITY SKY/WX TMP DP RH WIND PRES REMARKS EDENTON PTSUNNY 71 60 70 E6 29.87F ELIZABETH CITY PTCLDY 69 59 70 SE13 29.88S KITTY HAWK NOT AVBL MANTEO CLEAR 71 59 66 S10 29.89S $$ NCZ045>047-081-094-103-104-242300- CENTRAL COAST CITY SKY/WX TMP DP RH WIND PRES REMARKS FRISCO CLEAR 72 59 63 E8 29.87S HAZE $$ NCZ095-097-098-100-101-242300- SOUTHERN COAST CITY SKY/WX TMP DP RH WIND PRES REMARKS BEAUFORT SUNNY 73 58 59 E10 29.86S CEDAR ISLAND NOT AVBL JACKSONVILLE PTSUNNY 73 61 65 SE8 29.85R PINEY ISLAND CLEAR N/A N/A N/A E6 29.86F WILMINGTON SUNNY 74 60 61 SE6 29.85S $$ NCZ011>013-027>030-043-044-078>080-089-090>093-098-242300- COASTAL PLAIN CITY SKY/WX TMP DP RH WIND PRES REMARKS AHOSKIE N/A 73 56 55 SE6 29.85S CLINTON SUNNY 78 57 48 CALM 29.83S ELIZABETHTOWN SUNNY 78 55 43 SE5 29.82F GOLDSBORO SUNNY 79 54 41 SE5 29.81F GREENVILLE MOSUNNY 73 59 60 SE8 29.87F HAVELOCK NOT AVBL KENANSVILLE SUNNY 77 57 50 SE5 29.83S KINSTON MOSUNNY 77 55 47 E5 29.85S NEW BERN SUNNY 72 61 68 SE9 29.87R RICHLANDS PTSUNNY 75 59 57 SE7 29.85S ROCKY MOUNT SUNNY 77 56 48 SE3 29.83F WASHINGTON SUNNY 71 60 67 SE10 29.86S WHITEVILLE MOSUNNY 77 57 50 SE7 29.82S $$ AMZ130-135-150-152-154-156-158-170-250-252-270-ANZ085-086-088-633-658-670-242300- MARINE OBSERVATIONS STATION/POSITION TIME TEMP WIND PRES WAVE SWELL AIR SEA DIR/SP/G HT/PER HT/PER (UTC) (F) (DEG/KT/KT) (MB) (FT/S) (FT/S) CHESAPEAKE LIGHT NOT AVBL 64 E VA BEACH 2150 59 56 120/ 6/ 8 1012.5 6/11 7/11 DUCK 2154 61 49 120/ 10/ 11 1011.5 2 E DUCK 2200 54 N/A 5/10 2/13 OREGON INLET 2154 63 55 40/ 4/ 5 1012.0 13E OREGON INLT NOT AVBL HATTERAS CG 2154 70 62 90/ 7/ 10 1011.3 DIAMOND BUOY 2150 72 77 100/ 14/ 19 1011.0 7/ 9 7/ 9 CAPE LOOKOUT 2200 67 70/ 6/ 7 1010.8 BEAUFORT LAB 2154 72 62 110/ 7/ 10 1010.1 30 SE NEW RVR IN 2208 69 70/ 6/ 10 1010.6 30 SE NEW RVR IN 2143 71 N/A 8/10 3/11 27 SE WRIGHTSVLE 2208 69 67 60/ 6/ 10 1009.9 5 SE WRIGHTSVLE 2208 63 60 70/ 4/ 8 1010.5 225 S CAPE HAT 2150 70 70 60/ 10/ 12 1006.6 12/10 11/10 41 SE CHARLESTON 2150 69 71 20/ 12/ 14 1009.6 7/10 7/10 $$

USA.gov is the U.S. government's official web portal to all federal, state and local government web resources and services.